Regional Weather Roundup
Issued by NWS Jackson, KY

Home | Current Version | Previous Version | Graphics & Text | Print | Product List | Glossary On
Versions: 1 2 3 4 5 6 7 8 9 10 11 12 13 14 15 16 17 18 19 20 21 22 23 24 25 26 27 28 29 30 31 32 33 34 35 36 37 38 39 40 41 42 43 44 45 46 47 48 49 50
000
ASUS43 KJKL 091110
RWRJKL

EAST KENTUCKY HOURLY WEATHER ROUNDUP
NATIONAL WEATHER SERVICE JACKSON KY
600 AM EST TUE FEB 09 2016

NOTE: "FAIR" INDICATES FEW OR NO CLOUDS BELOW 12,000 FEET WITH
NO SIGNIFICANT WEATHER AND/OR OBSTRUCTIONS TO VISIBILITY.

* THESE REPORTS ARE NOT UNDER NWS QUALITY CONTROL AND MAY NOT
  REPORT WEATHER SUCH AS PRECIPITATION AND FOG.

KYZ079-080-083-085-087-088-110-112-115-119-120-091200
...EASTERN KENTUCKY...

CITY           SKY/WX    TMP DP  RH WIND       PRES   REMARKS
JACKSON        CLOUDY    21  15  78 VRB5      29.72R WCI  15
LONDON         LGT SNOW  21  16  81 W8        29.77R WCI  11
SOMERSET*      CLOUDY    21  14  73 W8        29.82R WCI  12
MONTICELLO*    FLURRIES  22  16  78 W12G20    29.82R WCI  10
WILLIAMSBURG*  CLOUDY    21  18  86 CALM      29.78S
MIDDLESBORO*   LGT SNOW  23  18  80 NW6       29.78R WCI  16
HARLAN APT*    CLOUDY    23  18  80 SW6       29.72S WCI  16
HAZARD APT*    LGT SNOW N/A N/A N/A NW8       29.73R
BLACK MTN*       N/A     14  14 100 NW3         N/A
BIG SANDY*     LGT SNOW  24  21  87 W6        29.70S WCI  17
MOREHEAD APT*  CLOUDY    21  12  68 W8G14     29.76R WCI  12
$$

KYZ035-036-041-042-044-050-067-078-099-091200
...CENTRAL KENTUCKY...

CITY           SKY/WX    TMP DP  RH WIND       PRES   REMARKS
MT STERLING*   CLOUDY    21  14  73 NW12G18   29.77R WCI   9
DANVILLE*      CLOUDY    21  16  79 W5        29.79S WCI  15
RICHMOND*      CLOUDY    19  14  79 W10G16    29.77R WCI   8
LEXINGTON      CLOUDY    20  14  77 W7        29.76S WCI  11
FRANKFORT      CLOUDY    21  14  74 SW8       29.76S WCI  11
$$

KYZ091>093-OHZ055-061-077-WVZ005-015-034-035-042-091200
...SOUTHERN OHIO/WEST VIRGINIA...

CITY           SKY/WX    TMP DP  RH WIND       PRES   REMARKS
COVINGTON      LGT SNOW  20  17  88 SW8       29.72R FOG     WCI  10
COLUMBUS       LGT SNOW  25  22  88 SW9       29.63R VSB 1   WCI  15
DAYTON         LGT SNOW  23  20  88 W15       29.66R FOG     WCI  10
WILMINGTON     LGT SNOW  20  17  88 W14       29.66S FOG     WCI   7
HUNTINGTON     CLOUDY    24  16  71 W10G20    29.71R WCI  14
CHARLESTON     LGT SNOW  26  21  81 W8        29.67R WCI  18
PINEVILLE*     LGT SNOW  26  21  81 MISG      29.69R
BECKLEY        LGT SNOW  23  18  81 W13G21    29.58R WCI  11
$$

VAZ002-007-008-TNZ017-027-036-066-071-091200
...SOUTHWEST VIRGINIA/EAST TENNESSEE...

CITY           SKY/WX    TMP DP  RH WIND       PRES   REMARKS
BRISTOL        CLOUDY    26  22  84 W8        29.70R WCI  18
KNOXVILLE      CLOUDY    28  15  58 W16G22    29.79R WCI  16
OAK RIDGE      CLOUDY    28  18  66 W6        29.80R WCI  22
CROSSVILLE     CLOUDY    21  12  68 W7        29.76R WCI  12
NASHVILLE      FLURRIES  26  19  74 N8        29.87R WCI  18
$$

...KEY TO REMARKS...
VSB - VISIBILITY IN MILES
WCI - WIND CHILL INDEX
HX  - HEAT INDEX

$$



USA.gov is the U.S. government's official web portal to all federal, state and local government web resources and services.